Simultaneous Nadir Overpasses (SNOs) Predictions

Prediction of SNOs between NOAA-20 and AQUA Satellite Orbit:

Table of predicted SNOs for the next 14.0 days since TLE Epoch: 2/18/2023
Index Date (NOAA-20) Time (NOAA-20) Lat,Lon (NOAA-20) SZA (NOAA-20 ) Date (AQUA) Time (AQUA) Lat,Lon (AQUA) SZA (AQUA ) Distance(km) Time Diff (sec)
1 02/19/2023 23:52:55 79.82, 81.52 103.34 02/19/2023 23:53:32 79.83, 81.59 103.30 1.40 37
2 02/20/2023 00:43:34 -80.02,-109.25 77.05 02/20/2023 00:42:52 -80.02,-109.15 77.03 1.95 42
3 02/22/2023 14:28:24 79.81,-137.48 102.42 02/22/2023 14:29:34 79.81,-137.53 102.38 0.96 70
4 02/22/2023 15:19:03 -80.01, 31.77 77.97 02/22/2023 15:18:54 -80.01, 31.74 77.96 0.48 9
5 02/25/2023 05:54:34 -79.90, 171.84 78.73 02/25/2023 05:54:56 -79.90, 171.91 78.76 1.49 22
6 02/25/2023 06:45:10 80.14, -18.35 100.80 02/25/2023 06:44:14 80.14, -18.46 100.86 2.24 56
7 02/27/2023 20:30:04 -79.85, -47.56 79.61 02/27/2023 20:30:56 -79.85, -47.49 79.66 1.34 52
8 02/27/2023 21:20:40 80.09, 122.21 99.93 02/27/2023 21:20:14 80.08, 122.08 99.97 2.53 26
9 03/02/2023 11:56:12 79.97, -97.89 99.16 03/02/2023 11:56:14 79.97, -97.81 99.14 1.48 2



Historial Predications of SNOs between NOAA-20 and AQUA
